STARLINK-35426, 66441

Orbit data source: Space-Track

STARLINK-35426, 66441 is a payload satellite owned by SpaceX/Seattle (US) in LEO that was launched on Tue, 11 Nov 2025 UTC via an FALCON 9 launch vehicle from the Air Force Eastern Test Range (AFETR). Payload-class satellites include a variety of spacecraft equipped with specific instruments for various scientific and technological missions. These include communications satellites like Starlink; space stations such as the ISS; scientific satellites like the Hubble; Earth observation satellites from companies like Planet Labs, Umbra, and HawkEye 360; GPS; miniature CubeSats for education and research; and military/defense satellites.

Loading next visibility...
Identifier
66441, 2025-259V
Orbit
LEO
Country
Flag of USUS
Related business
Manufacturer
SpaceX/Seattle
Mission
Operational Commercial Communications
Bus & Motor
STARLINK V2MO, Unknown motor
Mass
575 kg wet, ~530 kg dry
Launch date (UTC)
2025-11-11 (7 months ago)
Launch vehicle
FALCON 9
Launch site
Air Force Eastern Test Range (AFETR)
Object type
Payload
Rocket body
Debris
Shape & HBR
Box + 2 Pan, 17.7 m
Radar Cross Section
36.964 m², Large (>1 m²)

Expand to show TLE details & history
Last TLE update: 14 hours ago

TLE from 14 hours ago
0 STARLINK-35426
1 66441U 25259V   26150.10329073  .00019782  00000-0  72644-3 0  9996
2 66441  42.9994 174.4581 0000684 268.0993  91.9780 15.27581084 31947
Epoch: 2026-05-30T02:28Z
TLE epoch observation values (Epoch: 2026-05-30T02:28:44.319Z)
Latitude
-0.00002°
Longitude
-110.35071°
Altitude
482.837 km
Speed
7.626 km/s
True Right ascension
11h 37m 49s
True Declination
0° 00' 00"
Sunlit
Object was in daylight at epoch
Visualization orbit readout
Latitude
Unknown
Longitude
Unknown
Altitude
Unknown
Speed
Unknown
Apparent Right ascension
Unknown
Apparent Declination
Unknown
Sunlit
N/A
Visualization observer readout
Local Sidereal Time
02:00:20
Azimuth
Unknown
Elevation
Unknown
Doppler factor
Unknown
Orbital elements
Apogee altitude
485.461 km
Perigee altitude
484.522 km
Semi-major axis
6,863.128 km
Eccentricity
0.00007
Inclination
42.9994°
RAAN
174.4581°
Arg. of periapsis
268.0993°
True anomaly
91.98583°
Mean anomaly
91.978°
Eccentric anomaly
91.98192°
Mean motion
3.81733 °/min
Orbital period
94.31 mins
BSTAR
0.00072644
Loading maneuver chart data...
Computing Atmospheric mass density...
Loading historical data...
Loading historical data...
Loading historical data...
Loading historical data...
Loading historical data...
Loading historical data...
Loading historical data...

Documentation

Showing up to 5 results
|